FW5890 Weather Reports


Display with metric or nautical units.
time (UTC)temp
F
wind
direction
speed
MPH
gust
MPH
rain 1hr
in
rain 24hr
in
rain mn
in
humidity
%
barometer
mb
20260510050014 47 360 0.0 0.0 0.00 0.00 0.00 56 1015.6
20260510045534 47 360 0.0 0.0 0.00 0.00 0.00 55 1015.6
20260510045110 47 360 0.0 0.0 0.00 0.00 0.00 55 1015.5
20260510044520 47 360 0.0 0.0 0.00 0.00 0.00 55 1015.6
20260510044055 48 360 0.0 0.0 0.00 0.00 0.00 56 1015.6
20260510043514 48 360 0.0 0.0 0.00 0.00 0.00 55 1015.5
20260510043034 48 360 0.0 1.0 0.00 0.00 0.00 54 1015.4
20260510042525 48 360 0.0 0.0 0.00 0.00 0.00 55 1015.3
20260510042041 48 360 0.0 0.0 0.00 0.00 0.00 54 1015.3
20260510041602 49 360 0.0 2.0 0.00 0.00 0.00 53 1015.2
20260510041017 49 360 0.0 2.0 0.00 0.00 0.00 52 1015.2
20260510040534 49 360 0.0 1.0 0.00 0.00 0.00 52 1015.1
20260510040006 49 360 0.0 2.0 0.00 0.00 0.00 51 1015.0
20260510035525 49 360 0.0 2.0 0.00 0.00 0.00 51 1015.0
20260510035046 49 360 0.0 0.0 0.00 0.00 0.00 52 1014.9
20260510034520 50 360 0.0 1.0 0.00 0.00 0.00 51 1014.9
20260510034056 50 290 0.0 1.0 0.00 0.00 0.00 50 1014.8
20260510033513 50 290 0.0 1.0 0.00 0.00 0.00 51 1014.7
20260510033033 50 290 0.0 2.0 0.00 0.00 0.00 49 1014.7
20260510032504 50 290 0.0 2.0 0.00 0.00 0.00 48 1014.7
20260510032024 50 286 0.0 1.0 0.00 0.00 0.00 48 1014.6
20260510031557 51 306 0.0 2.0 0.00 0.00 0.00 48 1014.5
20260510031017 51 306 0.0 2.0 0.00 0.00 0.00 49 1014.4
20260510030605 51 307 0.0 1.0 0.00 0.00 0.00 48 1014.4
20260510030048 51 307 0.0 1.0 0.00 0.00 0.00 47 1014.3
20260510025508 51 307 0.0 3.0 0.00 0.00 0.00 47 1014.3
20260510025054 52 307 0.0 3.0 0.00 0.00 0.00 46 1014.2
20260510024530 52 248 0.0 3.0 0.00 0.00 0.00 45 1014.1
20260510024047 52 360 0.0 2.0 0.00 0.00 0.00 47 1014.0
20260510023521 52 360 0.0 2.0 0.00 0.00 0.00 45 1013.9
20260510023106 52 360 0.0 4.0 0.00 0.00 0.00 45 1013.7
20260510022542 52 360 0.0 5.0 0.00 0.00 0.00 44 1013.6
20260510022103 53 360 0.0 5.0 0.00 0.00 0.00 43 1013.5
20260510021523 53 360 1.0 3.0 0.00 0.00 0.00 44 1013.3
20260510021038 53 360 0.0 2.0 0.00 0.00 0.00 44 1013.2
20260510020556 53 360 0.0 2.0 0.00 0.00 0.00 44 1013.1
20260510020005 53 360 0.0 2.0 0.00 0.00 0.00 43 1012.9
20260510015552 53 242 0.0 3.0 0.00 0.00 0.00 43 1012.8
20260510015027 54 236 0.0 5.0 0.00 0.00 0.00 42 1012.6
20260510014602 54 261 1.0 5.0 0.00 0.00 0.00 41 1012.6
20260510014010 54 294 0.0 9.0 0.00 0.00 0.00 42 1012.6
20260510013536 54 18 1.0 9.0 0.00 0.00 0.00 40 1012.5
20260510013019 55 188 0.0 3.0 0.00 0.00 0.00 41 1012.4
20260510012552 55 176 0.0 3.0 0.00 0.00 0.00 41 1012.3
20260510012010 55 188 1.0 4.0 0.00 0.00 0.00 39 1012.2
20260510011536 55 221 1.0 5.0 0.00 0.00 0.00 38 1012.1
20260510011014 55 188 0.0 5.0 0.00 0.00 0.00 38 1012.0
20260510010539 55 178 1.0 5.0 0.00 0.00 0.00 38 1012.0
20260510010021 56 273 1.0 6.0 0.00 0.00 0.00 37 1011.9
20260510005605 56 321 1.0 4.0 0.00 0.00 0.00 38 1011.8
20260510005040 56 241 1.0 9.0 0.00 0.00 0.00 38 1011.8
20260510004535 56 74 2.0 9.0 0.00 0.00 0.00 37 1011.7
20260510004023 56 205 1.0 5.0 0.00 0.00 0.00 38 1011.7
20260510003552 56 248 2.0 5.0 0.00 0.00 0.00 37 1011.6
20260510003101 57 198 1.0 5.0 0.00 0.00 0.00 38 1011.6
20260510002503 57 302 0.0 8.0 0.00 0.00 0.00 38 1011.4
20260510002046 57 169 1.0 8.0 0.00 0.00 0.00 36 1011.4
20260510001529 57 134 1.0 4.0 0.00 0.00 0.00 36 1011.4
20260510001056 57 310 1.0 7.0 0.00 0.00 0.00 35 1011.4
20260510000514 57 346 1.0 7.0 0.00 0.00 0.00 36 1011.2
20260510000059 58 173 1.0 6.0 0.00 0.00 0.00 35 1011.1
20260509235522 58 152 2.0 10.0 0.00 0.00 0.00 35 1011.1
20260509235004 58 189 1.0 10.0 0.00 0.00 0.00 37 1011.1
20260509234551 58 145 2.0 9.0 0.00 0.00 0.00 35 1011.0
20260509234031 58 254 2.0 9.0 0.00 0.00 0.00 36 1010.9
20260509233523 59 227 1.0 10.0 0.00 0.00 0.00 36 1010.9
20260509233003 59 300 2.0 10.0 0.00 0.00 0.00 35 1010.9
20260509232529 59 64 1.0 10.0 0.00 0.00 0.00 35 1010.9
20260509232009 59 52 2.0 8.0 0.00 0.00 0.00 34 1010.7
20260509231504 59 260 2.0 8.0 0.00 0.00 0.00 35 1010.7
20260509231100 59 329 2.0 8.0 0.00 0.00 0.00 34 1010.7
20260509230538 59 5 1.0 6.0 0.00 0.00 0.00 33 1010.7
20260509230022 60 91 2.0 9.0 0.00 0.00 0.00 33 1010.5
20260509225600 60 221 3.0 9.0 0.00 0.00 0.00 32 1010.5
20260509225032 60 295 1.0 6.0 0.00 0.00 0.00 36 1010.4
20260509224509 60 153 2.0 6.0 0.00 0.00 0.00 33 1010.3
20260509224004 60 320 2.0 6.0 0.00 0.00 0.00 33 1010.2
20260509223600 61 311 2.0 8.0 0.00 0.00 0.00 33 1010.2
20260509223033 61 59 3.0 9.0 0.00 0.00 0.00 34 1010.1
20260509222517 61 121 2.0 7.0 0.00 0.00 0.00 31 1010.1
20260509222037 61 221 1.0 6.0 0.00 0.00 0.00 33 1010.0
20260509221507 62 323 2.0 9.0 0.00 0.00 0.00 35 1010.0
20260509221042 62 171 1.0 9.0 0.00 0.00 0.00 35 1010.0
20260509220507 62 317 2.0 6.0 0.00 0.00 0.00 34 1009.9
20260509220050 61 184 1.0 9.0 0.00 0.00 0.00 35 1009.9
20260509215519 62 253 2.0 11.0 0.00 0.00 0.00 33 1009.9
20260509215105 62 47 3.0 11.0 0.00 0.00 0.00 33 1009.9
20260509214536 62 192 2.0 8.0 0.00 0.00 0.00 33 1009.9
20260509214008 61 331 2.0 10.0 0.00 0.00 0.00 34 1009.9
20260509213529 62 341 2.0 10.0 0.00 0.00 0.00 35 1009.8
20260509213003 62 79 1.0 5.0 0.00 0.00 0.00 34 1009.9
20260509212522 61 325 2.0 5.0 0.00 0.00 0.00 35 1009.8
20260509212048 61 202 2.0 6.0 0.00 0.00 0.00 33 1009.8
20260509211520 61 341 2.0 10.0 0.00 0.00 0.00 34 1009.8
20260509211057 61 215 2.0 12.0 0.00 0.00 0.00 34 1009.7
20260509210507 61 258 2.0 12.0 0.00 0.00 0.00 34 1009.6
20260509210027 61 307 5.0 12.0 0.00 0.00 0.00 32 1009.4
20260509205501 61 105 2.0 10.0 0.00 0.00 0.00 35 1009.6
20260509205020 61 200 3.0 10.0 0.00 0.00 0.00 34 1009.6
20260509204541 61 328 4.0 10.0 0.00 0.00 0.00 36 1009.6
20260509204017 61 347 2.0 9.0 0.00 0.00 0.00 35 1009.6
20260509203534 61 111 2.0 15.0 0.00 0.00 0.00 37 1009.5
20260509203057 62 332 4.0 15.0 0.00 0.00 0.00 36 1009.3
20260509202531 62 246 2.0 8.0 0.00 0.00 0.00 35 1009.4
20260509202049 62 217 1.0 4.0 0.00 0.00 0.00 37 1009.4
20260509201522 62 120 1.0 7.0 0.00 0.00 0.00 37 1009.3
20260509201042 61 239 2.0 10.0 0.00 0.00 0.00 37 1009.3
20260509200603 61 71 4.0 10.0 0.00 0.00 0.00 35 1009.2
20260509200041 62 319 3.0 11.0 0.00 0.00 0.00 38 1009.2
20260509195507 62 277 2.0 11.0 0.00 0.00 0.00 37 1009.2
20260509195026 61 13 1.0 12.0 0.00 0.00 0.00 39 1009.1
20260509194555 62 309 2.0 13.0 0.00 0.00 0.00 38 1009.2
20260509194024 62 346 2.0 5.0 0.00 0.00 0.00 40 1009.1
20260509193607 62 304 1.0 7.0 0.00 0.00 0.00 37 1009.1
20260509193020 61 71 2.0 9.0 0.00 0.00 0.00 38 1009.0
20260509192537 61 323 2.0 9.0 0.00 0.00 0.00 40 1009.0
20260509192058 61 300 1.0 11.0 0.00 0.00 0.00 38 1008.9
20260509191504 61 185 2.0 6.0 0.00 0.00 0.00 36 1008.9
20260509191029 61 327 2.0 9.0 0.00 0.00 0.00 37 1008.9
20260509190544 61 217 2.0 9.0 0.00 0.00 0.00 41 1008.9
20260509190010 60 244 1.0 13.0 0.00 0.00 0.00 41 1008.8
20260509185539 60 339 5.0 13.0 0.00 0.00 0.00 40 1008.8
20260509185019 60 279 4.0 13.0 0.00 0.00 0.00 41 1008.7
20260509184557 60 41 3.0 11.0 0.00 0.00 0.00 42 1008.6
20260509184038 60 144 3.0 12.0 0.00 0.00 0.00 42 1008.6
20260509183518 61 21 2.0 7.0 0.00 0.00 0.00 44 1008.6
20260509183101 60 236 2.0 8.0 0.00 0.00 0.00 44 1008.7
20260509182511 60 306 3.0 8.0 0.00 0.00 0.00 42 1008.5
20260509182040 60 315 2.0 10.0 0.00 0.00 0.00 43 1008.5
20260509181518 60 296 2.0 10.0 0.00 0.00 0.00 42 1008.5
20260509181057 60 219 3.0 12.0 0.00 0.00 0.00 42 1008.4
20260509180511 60 341 2.0 12.0 0.00 0.00 0.00 42 1008.3
20260509180027 60 121 3.0 9.0 0.00 0.00 0.00 43 1008.4
20260509175548 60 165 2.0 9.0 0.00 0.00 0.00 40 1008.3
20260509175107 60 165 3.0 9.0 0.00 0.00 0.00 42 1008.3
20260509174536 60 5 2.0 8.0 0.00 0.00 0.00 46 1008.3
20260509174037 60 124 2.0 9.0 0.00 0.00 0.00 42 1008.2
20260509173556 60 252 3.0 13.0 0.00 0.00 0.00 44 1008.2
20260509173007 59 19 4.0 13.0 0.00 0.00 0.00 44 1008.1
20260509172527 59 292 1.0 10.0 0.00 0.00 0.00 44 1008.2
20260509172046 59 344 3.0 10.0 0.00 0.00 0.00 42 1008.2
20260509171526 59 243 2.0 12.0 0.00 0.00 0.00 43 1008.0
20260509171038 59 340 2.0 9.0 0.00 0.00 0.00 43 1008.0
20260509170504 60 355 3.0 9.0 0.00 0.00 0.00 42 1007.9
20260509170034 59 226 3.0 8.0 0.00 0.00 0.00 44 1007.9
20260509165506 59 70 1.0 13.0 0.00 0.00 0.00 43 1007.8
20260509165026 59 122 3.0 12.0 0.00 0.00 0.00 43 1007.8
20260509164554 59 112 2.0 12.0 0.00 0.00 0.00 43 1007.8
20260509164027 59 325 3.0 10.0 0.00 0.00 0.00 43 1007.7
20260509163605 59 38 2.0 9.0 0.00 0.00 0.00 45 1007.6
20260509163016 58 269 3.0 9.0 0.00 0.00 0.00 44 1007.6
20260509162535 58 205 2.0 12.0 0.00 0.00 0.00 44 1007.6
20260509162054 58 88 4.0 12.0 0.00 0.00 0.00 42 1007.3
20260509161540 58 51 3.0 9.0 0.00 0.00 0.00 43 1007.5
20260509161053 59 299 3.0 8.0 0.00 0.00 0.00 45 1007.4
20260509160522 58 73 2.0 9.0 0.00 0.00 0.00 47 1007.3
20260509160045 58 286 3.0 9.0 0.00 0.00 0.00 47 1007.4
20260509155512 58 341 2.0 11.0 0.00 0.00 0.00 47 1007.3
20260509155035 58 121 1.0 8.0 0.00 0.00 0.00 51 1007.2
20260509154503 58 269 2.0 8.0 0.00 0.00 0.00 48 1007.1
20260509154029 58 148 2.0 6.0 0.00 0.00 0.00 48 1007.1
20260509153606 58 311 3.0 6.0 0.00 0.00 0.00 48 1007.0
20260509153032 58 229 1.0 4.0 0.00 0.00 0.00 52 1007.0
20260509152537 57 67 2.0 5.0 0.00 0.00 0.00 51 1007.0
20260509152057 57 69 1.0 6.0 0.00 0.00 0.00 52 1006.9
20260509151522 56 294 2.0 6.0 0.00 0.00 0.00 54 1006.8
20260509151051 56 146 2.0 8.0 0.00 0.00 0.00 55 1006.8
20260509150501 56 24 2.0 9.0 0.00 0.00 0.00 56 1006.7
20260509150033 56 321 2.0 9.0 0.00 0.00 0.00 58 1006.6
20260509145541 56 103 1.0 10.0 0.00 0.00 0.00 59 1006.6
20260509145015 56 189 2.0 10.0 0.00 0.00 0.00 59 1006.5
20260509144535 55 61 1.0 10.0 0.00 0.00 0.00 61 1006.5
20260509144002 56 332 3.0 10.0 0.00 0.00 0.00 59 1006.4
20260509143531 56 312 2.0 7.0 0.00 0.00 0.00 60 1006.3
20260509143009 55 159 2.0 6.0 0.00 0.00 0.00 61 1006.3
20260509142547 55 273 3.0 7.0 0.00 0.00 0.00 62 1006.2
20260509142108 55 209 1.0 5.0 0.00 0.00 0.00 66 1006.1
20260509141543 55 139 1.0 8.0 0.00 0.00 0.00 64 1006.0
20260509141016 55 180 2.0 10.0 0.00 0.00 0.00 64 1005.9
20260509140603 56 296 2.0 7.0 0.00 0.00 0.00 65 1005.8
20260509140017 55 140 1.0 8.0 0.00 0.00 0.00 69 1005.6
20260509135538 55 150 3.0 8.0 0.00 0.00 0.00 67 1005.7
20260509135017 54 185 2.0 9.0 0.00 0.00 0.00 70 1005.5
20260509134600 53 73 2.0 9.0 0.00 0.00 0.00 72 1005.5
20260509134041 53 99 2.0 7.0 0.00 0.00 0.00 73 1005.4
20260509133537 52 13 2.0 8.0 0.00 0.00 0.00 73 1005.4
20260509133007 52 113 2.0 8.0 0.00 0.00 0.00 71 1005.4
20260509132540 53 258 1.0 9.0 0.00 0.00 0.00 71 1005.2
20260509132010 54 51 2.0 9.0 0.00 0.00 0.00 70 1005.1
20260509131534 53 232 0.0 5.0 0.00 0.00 0.00 72 1005.0
20260509131020 53 333 1.0 8.0 0.00 0.00 0.00 73 1004.8
20260509130605 53 73 3.0 8.0 0.00 0.00 0.00 74 1004.7
20260509130022 52 112 1.0 9.0 0.00 0.00 0.00 75 1004.7
20260509125558 52 110 2.0 9.0 0.00 0.00 0.00 75 1004.6
20260509125044 52 360 1.0 6.0 0.00 0.00 0.00 76 1004.6
20260509124600 52 360 2.0 5.0 0.00 0.00 0.00 75 1004.5
20260509124040 52 360 2.0 5.0 0.00 0.00 0.00 76 1004.3
20260509123602 52 360 1.0 3.0 0.00 0.00 0.00 76 1004.3
20260509123022 52 360 1.0 11.0 0.00 0.00 0.00 77 1004.2
20260509122502 52 360 1.0 11.0 0.00 0.00 0.00 77 1004.1
20260509122041 52 360 1.0 6.0 0.00 0.00 0.00 77 1004.0
20260509121520 52 360 2.0 10.0 0.00 0.00 0.00 76 1003.9
20260509121014 52 360 2.0 10.0 0.00 0.00 0.00 76 1003.8
20260509120538 52 360 3.0 8.0 0.00 0.00 0.00 76 1003.8
20260509120033 52 360 2.0 8.0 0.00 0.00 0.00 75 1003.7
20260509115511 52 360 2.0 8.0 0.00 0.00 0.00 74 1003.6
20260509115003 52 360 3.0 8.0 0.00 0.00 0.00 74 1003.5
20260509114550 52 360 2.0 4.0 0.00 0.00 0.00 74 1003.4
20260509114025 52 360 0.0 4.0 0.00 0.00 0.00 74 1003.4
20260509113501 52 360 0.0 3.0 0.00 0.00 0.00 74 1003.3
20260509113045 52 360 1.0 3.0 0.00 0.00 0.00 74 1003.3
20260509112530 52 360 0.0 2.0 0.00 0.00 0.00 74 1003.2
20260509112105 52 360 0.0 2.0 0.00 0.00 0.00 73 1003.2
20260509111549 51 360 0.0 2.0 0.00 0.00 0.00 72 1003.0
20260509111027 51 360 0.0 2.0 0.00 0.00 0.00 73 1003.1
20260509110524 51 360 1.0 2.0 0.00 0.00 0.00 73 1002.8
20260509110052 51 360 0.0 2.0 0.00 0.00 0.00 73 1002.9
20260509105547 51 360 0.0 2.0 0.00 0.00 0.00 73 1002.9
20260509105034 51 360 0.0 1.0 0.00 0.00 0.00 73 1002.7
20260509104554 51 360 0.0 1.0 0.00 0.00 0.00 72 1002.6
20260509104003 52 360 0.0 0.0 0.00 0.00 0.00 70 1002.6
20260509103601 52 360 0.0 0.0 0.00 0.00 0.00 70 1002.7
20260509103049 52 360 0.0 3.0 0.00 0.00 0.00 67 1002.6
20260509102530 52 360 0.0 3.0 0.00 0.00 0.00 66 1002.2
20260509102050 52 360 0.0 3.0 0.00 0.00 0.00 65 1002.3
20260509101535 52 360 1.0 3.0 0.00 0.00 0.00 65 1002.5
20260509101108 52 360 0.0 2.0 0.00 0.00 0.00 64 1002.3
20260509100518 52 360 0.0 1.0 0.00 0.00 0.00 64 1002.5
20260509100008 52 360 0.0 1.0 0.00 0.00 0.00 65 1002.8
20260509095540 52 360 0.0 1.0 0.00 0.00 0.00 64 1003.0
20260509095008 52 360 0.0 2.0 0.00 0.00 0.00 63 1003.1
20260509094552 52 360 0.0 2.0 0.00 0.00 0.00 63 1003.0
20260509094002 52 360 0.0 2.0 0.00 0.00 0.00 64 1002.9
20260509093529 52 360 0.0 2.0 0.00 0.00 0.00 64 1002.9
20260509093108 51 360 0.0 2.0 0.00 0.00 0.00 63 1002.8
20260509092539 51 360 0.0 2.0 0.00 0.00 0.00 62 1002.9
20260509092001 51 360 0.0 2.0 0.00 0.00 0.00 62 1002.8
20260509091555 51 360 0.0 1.0 0.00 0.00 0.00 61 1002.8
20260509091014 52 360 0.0 2.0 0.00 0.00 0.00 60 1002.7
20260509090600 51 360 0.0 2.0 0.00 0.00 0.00 60 1002.6
20260509090032 51 360 0.0 3.0 0.00 0.00 0.00 59 1002.6
20260509085504 51 360 0.0 3.0 0.00 0.00 0.00 58 1002.5
20260509085026 51 360 0.0 3.0 0.00 0.00 0.00 59 1002.6
20260509084607 51 360 0.0 3.0 0.00 0.00 0.00 59 1002.5
20260509084016 51 360 0.0 3.0 0.00 0.00 0.00 60 1002.5
20260509083533 50 360 0.0 3.0 0.00 0.00 0.00 62 1002.4
20260509083012 49 360 1.0 2.0 0.00 0.00 0.00 65 1002.7
20260509082552 49 360 0.0 0.0 0.00 0.00 0.00 65 1002.0
20260509082002 49 360 0.0 0.0 0.00 0.00 0.00 65 1001.7
20260509081522 48 360 0.0 0.0 0.00 0.00 0.00 66 1001.6
20260509081042 48 360 0.0 1.0 0.00 0.00 0.00 70 1001.6
20260509080604 47 360 0.0 1.0 0.00 0.00 0.00 72 1001.4
20260509080014 47 360 0.0 0.0 0.00 0.00 0.00 72 1001.4
20260509075532 47 360 0.0 0.0 0.00 0.00 0.00 71 1001.5
20260509075019 47 360 0.0 0.0 0.00 0.00 0.00 72 1001.4
20260509074612 47 360 0.0 0.0 0.00 0.00 0.00 71 1001.2
20260509074041 47 360 0.0 0.0 0.00 0.00 0.00 69 1001.2
20260509073602 47 360 0.0 0.0 0.00 0.00 0.00 70 1001.4
20260509073037 47 360 0.0 0.0 0.00 0.00 0.00 70 1001.3
20260509072508 47 360 0.0 0.0 0.00 0.00 0.00 73 1001.4
20260509072028 47 360 0.0 0.0 0.00 0.00 0.00 74 1001.6
20260509071559 47 360 0.0 0.0 0.00 0.00 0.00 72 1001.6
20260509071108 47 360 0.0 0.0 0.00 0.00 0.00 69 1001.8
20260509070521 47 360 0.0 0.0 0.00 0.00 0.00 70 1001.8
20260509065523 47 360 0.0 0.0 0.00 0.00 0.00 71 1001.8
20260509065005 47 360 0.0 0.0 0.00 0.00 0.00 73 1001.8
20260509064533 47 360 0.0 0.0 0.00 0.00 0.00 76 1001.8
20260509064049 47 360 0.0 0.0 0.00 0.00 0.00 72 1001.9
20260509063609 47 360 0.0 0.0 0.00 0.00 0.00 66 1002.0
20260509063027 47 360 0.0 0.0 0.00 0.00 0.00 65 1002.1
20260509062603 48 360 0.0 0.0 0.00 0.00 0.00 65 1002.1
20260509062014 48 360 0.0 0.0 0.00 0.00 0.00 65 1002.0
20260509061602 49 360 0.0 0.0 0.00 0.00 0.00 65 1002.1
20260509061029 49 360 0.0 0.0 0.00 0.00 0.00 68 1002.1
20260509060545 50 209 0.0 0.0 0.00 0.00 0.00 63 1002.2
20260509060025 50 209 0.0 0.0 0.00 0.00 0.00 65 1002.1
20260509055540 51 209 0.0 0.0 0.00 0.00 0.00 68 1002.2
20260509055018 51 209 0.0 0.0 0.00 0.00 0.00 63 1002.3
20260509054610 51 209 0.0 0.0 0.00 0.00 0.00 53 1002.5
20260509054031 51 209 0.0 0.0 0.00 0.00 0.00 51 1002.6
20260509053552 51 209 0.0 0.0 0.00 0.00 0.00 50 1002.6
20260509053002 52 209 0.0 0.0 0.00 0.00 0.00 49 1002.7
20260509052522 52 209 0.0 0.0 0.00 0.00 0.00 49 1002.6
20260509052002 53 360 0.0 0.0 0.00 0.00 0.00 49 1002.6
20260509051558 53 360 0.0 0.0 0.00 0.00 0.00 48 1002.6
20260509051029 54 360 0.0 0.0 0.00 0.00 0.00 48 1002.8
20260509050508 54 360 0.0 0.0 0.00 0.00 0.00 48 1002.9
20260509050046 54 360 0.0 0.0 0.00 0.00 0.00 47 1003.0